Time,TemperatureF,DewpointF,PressureIn,WindDirection,WindDirectionDegrees,WindSpeedMPH,WindSpeedGustMPH,Humidity,HourlyPrecipIn,Conditions,Clouds,dailyrainin,SoftwareType,DateUTC
2013-06-07 00:00:00,54.0,27.0,-100.00,North,1,2.0,4.0,35,0.00,,,-99.99,,2013-06-07 04:00:00,
2013-06-07 00:33:00,54.0,27.0,-100.00,North,1,2.0,4.0,35,0.00,,,-99.99,,2013-06-07 04:33:00,
2013-06-07 00:42:00,54.0,27.0,-100.00,North,1,2.0,4.0,35,0.00,,,-99.99,,2013-06-07 04:42:00,
2013-06-07 00:53:00,54.0,27.0,-100.00,North,1,2.0,4.0,35,0.00,,,-99.99,,2013-06-07 04:53:00,
2013-06-07 01:00:00,53.0,27.0,-100.00,NNE,18,1.0,2.0,35,0.00,,,-99.99,,2013-06-07 05:00:00,
2013-06-07 01:32:00,53.0,27.0,-100.00,NNE,18,1.0,2.0,35,0.00,,,-99.99,,2013-06-07 05:32:00,
2013-06-07 01:42:00,53.0,27.0,-100.00,NNE,18,1.0,2.0,35,0.00,,,-99.99,,2013-06-07 05:42:00,
2013-06-07 01:52:00,53.0,27.0,-100.00,NNE,18,1.0,2.0,35,0.00,,,-99.99,,2013-06-07 05:52:00,
2013-06-07 02:00:00,51.0,28.0,-100.00,North,9,0.0,1.0,40,0.00,,,-99.99,,2013-06-07 06:00:00,
2013-06-07 02:32:00,51.0,28.0,-100.00,North,9,0.0,1.0,40,0.00,,,-99.99,,2013-06-07 06:32:00,
2013-06-07 02:42:00,51.0,28.0,-100.00,North,9,0.0,1.0,40,0.00,,,-99.99,,2013-06-07 06:42:00,
2013-06-07 02:52:00,51.0,28.0,-100.00,North,9,0.0,1.0,40,0.00,,,-99.99,,2013-06-07 06:52:00,
2013-06-07 03:00:00,51.0,28.0,-100.00,NE,50,0.0,2.0,41,0.00,,,-99.99,,2013-06-07 07:00:00,
2013-06-07 03:32:00,51.0,28.0,-100.00,NE,50,0.0,2.0,41,0.00,,,-99.99,,2013-06-07 07:32:00,
2013-06-07 03:42:00,51.0,28.0,-100.00,NE,50,0.0,2.0,41,0.00,,,-99.99,,2013-06-07 07:42:00,
2013-06-07 03:52:00,51.0,28.0,-100.00,NE,50,0.0,2.0,41,0.00,,,-99.99,,2013-06-07 07:52:00,
2013-06-07 04:00:00,49.0,29.0,-100.00,NNE,30,1.0,2.0,45,0.00,,,-99.99,,2013-06-07 08:00:00,
2013-06-07 04:32:00,49.0,29.0,-100.00,NNE,30,1.0,2.0,45,0.00,,,-99.99,,2013-06-07 08:32:00,
2013-06-07 04:42:00,49.0,29.0,-100.00,NNE,30,1.0,2.0,45,0.00,,,-99.99,,2013-06-07 08:42:00,
2013-06-07 04:52:00,49.0,29.0,-100.00,NNE,30,1.0,2.0,45,0.00,,,-99.99,,2013-06-07 08:52:00,
2013-06-07 05:00:00,50.0,29.0,-100.00,NNE,20,1.0,2.0,43,0.00,,,-99.99,,2013-06-07 09:00:00,
2013-06-07 05:32:00,50.0,29.0,-100.00,NNE,20,1.0,2.0,43,0.00,,,-99.99,,2013-06-07 09:32:00,
2013-06-07 05:43:00,50.0,29.0,-100.00,NNE,20,1.0,2.0,43,0.00,,,-99.99,,2013-06-07 09:43:00,
2013-06-07 05:53:00,50.0,29.0,-100.00,NNE,20,1.0,2.0,43,0.00,,,-99.99,,2013-06-07 09:53:00,
2013-06-07 06:00:00,49.0,29.0,-100.00,ENE,67,0.0,1.0,46,0.00,,,-99.99,,2013-06-07 10:00:00,
2013-06-07 06:32:00,49.0,29.0,-100.00,ENE,67,0.0,1.0,46,0.00,,,-99.99,,2013-06-07 10:32:00,
2013-06-07 06:42:00,49.0,29.0,-100.00,ENE,67,0.0,1.0,46,0.00,,,-99.99,,2013-06-07 10:42:00,
2013-06-07 06:52:00,49.0,29.0,-100.00,ENE,67,0.0,1.0,46,0.00,,,-99.99,,2013-06-07 10:52:00,
2013-06-07 07:00:00,49.0,30.0,-100.00,North,2,2.0,2.0,48,0.00,,,-99.99,,2013-06-07 11:00:00,
2013-06-07 07:32:00,49.0,30.0,-100.00,North,2,2.0,2.0,48,0.00,,,-99.99,,2013-06-07 11:32:00,
2013-06-07 07:42:00,49.0,30.0,-100.00,North,2,2.0,2.0,48,0.00,,,-99.99,,2013-06-07 11:42:00,
2013-06-07 07:52:00,49.0,30.0,-100.00,North,2,2.0,2.0,48,0.00,,,-99.99,,2013-06-07 11:52:00,
2013-06-07 08:00:00,49.0,31.0,-100.00,North,3,0.0,1.0,50,0.00,,,-99.99,,2013-06-07 12:00:00,
2013-06-07 08:32:00,49.0,31.0,-100.00,North,3,0.0,1.0,50,0.00,,,-99.99,,2013-06-07 12:32:00,
2013-06-07 08:42:00,49.0,31.0,-100.00,North,3,0.0,1.0,50,0.00,,,-99.99,,2013-06-07 12:42:00,
2013-06-07 08:52:00,49.0,31.0,-100.00,North,3,0.0,1.0,50,0.00,,,-99.99,,2013-06-07 12:52:00,
2013-06-07 09:00:00,49.0,33.0,-100.00,NNE,16,2.0,3.0,52,0.00,,,-99.99,,2013-06-07 13:00:00,
2013-06-07 09:32:00,49.0,33.0,-100.00,NNE,16,2.0,3.0,52,0.00,,,-99.99,,2013-06-07 13:32:00,
2013-06-07 09:42:00,49.0,33.0,-100.00,NNE,16,2.0,3.0,52,0.00,,,-99.99,,2013-06-07 13:42:00,
2013-06-07 09:52:00,49.0,33.0,-100.00,NNE,16,2.0,3.0,52,0.00,,,-99.99,,2013-06-07 13:52:00,
2013-06-07 10:00:00,54.0,36.0,-100.00,East,84,0.0,2.0,49,0.00,,,-99.99,,2013-06-07 14:00:00,
2013-06-07 10:32:00,54.0,36.0,-100.00,East,84,0.0,2.0,49,0.00,,,-99.99,,2013-06-07 14:32:00,
2013-06-07 10:42:00,54.0,36.0,-100.00,East,84,0.0,2.0,49,0.00,,,-99.99,,2013-06-07 14:42:00,
2013-06-07 10:52:00,54.0,36.0,-100.00,East,84,0.0,2.0,49,0.00,,,-99.99,,2013-06-07 14:52:00,
2013-06-07 11:00:00,62.0,35.0,-100.00,South,182,1.0,2.0,35,0.00,,,-99.99,,2013-06-07 15:00:00,
2013-06-07 11:33:00,62.0,35.0,-100.00,South,182,1.0,2.0,35,0.00,,,-99.99,,2013-06-07 15:33:00,
2013-06-07 11:43:00,62.0,35.0,-100.00,South,182,1.0,2.0,35,0.00,,,-99.99,,2013-06-07 15:43:00,
2013-06-07 11:53:00,62.0,35.0,-100.00,South,182,1.0,2.0,35,0.00,,,-99.99,,2013-06-07 15:53:00,
2013-06-07 12:00:00,63.0,32.0,-100.00,SW,224,3.0,5.0,31,0.00,,,-99.99,,2013-06-07 16:00:00,
2013-06-07 12:33:00,63.0,32.0,-100.00,SW,224,3.0,5.0,31,0.00,,,-99.99,,2013-06-07 16:33:00,
2013-06-07 12:43:00,63.0,32.0,-100.00,SW,224,3.0,5.0,31,0.00,,,-99.99,,2013-06-07 16:43:00,
2013-06-07 12:52:00,63.0,32.0,-100.00,SW,224,3.0,5.0,31,0.00,,,-99.99,,2013-06-07 16:52:00,
2013-06-07 13:00:00,64.0,32.0,-100.00,SW,232,5.0,8.0,30,0.00,,,-99.99,,2013-06-07 17:00:00,
2013-06-07 13:32:00,64.0,32.0,-100.00,SW,232,5.0,8.0,30,0.00,,,-99.99,,2013-06-07 17:32:00,
2013-06-07 13:42:00,64.0,32.0,-100.00,SW,232,5.0,8.0,30,0.00,,,-99.99,,2013-06-07 17:42:00,
2013-06-07 13:52:00,64.0,32.0,-100.00,SW,232,5.0,8.0,30,0.00,,,-99.99,,2013-06-07 17:52:00,
2013-06-07 14:35:00,65.0,32.0,-100.00,WSW,248,6.0,9.0,29,0.00,,,-99.99,,2013-06-07 18:35:00,
2013-06-07 14:43:00,65.0,32.0,-100.00,WSW,248,6.0,9.0,29,0.00,,,-99.99,,2013-06-07 18:43:00,
2013-06-07 14:55:00,65.0,32.0,-100.00,WSW,248,6.0,9.0,29,0.00,,,-99.99,,2013-06-07 18:55:00,
2013-06-07 15:00:00,65.0,32.0,-100.00,WSW,238,7.0,10.0,29,0.00,,,-99.99,,2013-06-07 19:00:00,
2013-06-07 15:34:00,65.0,32.0,-100.00,WSW,238,7.0,10.0,29,0.00,,,-99.99,,2013-06-07 19:34:00,
2013-06-07 15:45:00,65.0,32.0,-100.00,WSW,238,7.0,10.0,29,0.00,,,-99.99,,2013-06-07 19:45:00,
2013-06-07 15:54:00,65.0,32.0,-100.00,WSW,238,7.0,10.0,29,0.00,,,-99.99,,2013-06-07 19:54:00,
2013-06-07 16:00:00,65.0,33.0,-100.00,WSW,237,5.0,11.0,30,0.00,,,-99.99,,2013-06-07 20:00:00,
2013-06-07 16:44:00,65.0,33.0,-100.00,WSW,237,5.0,11.0,30,0.00,,,-99.99,,2013-06-07 20:44:00,
2013-06-07 16:54:00,65.0,33.0,-100.00,WSW,237,5.0,11.0,30,0.00,,,-99.99,,2013-06-07 20:54:00,
2013-06-07 17:00:00,66.0,32.0,-100.00,SW,227,7.0,12.0,27,0.00,,,-99.99,,2013-06-07 21:00:00,
2013-06-07 17:38:00,66.0,32.0,-100.00,SW,227,7.0,12.0,27,0.00,,,-99.99,,2013-06-07 21:38:00,
2013-06-07 17:44:00,66.0,32.0,-100.00,SW,227,7.0,12.0,27,0.00,,,-99.99,,2013-06-07 21:44:00,
2013-06-07 17:55:00,66.0,32.0,-100.00,SW,227,7.0,12.0,27,0.00,,,-99.99,,2013-06-07 21:55:00,
2013-06-07 18:00:00,64.0,31.0,-100.00,SW,232,5.0,13.0,28,0.00,,,-99.99,,2013-06-07 22:00:00,
2013-06-07 18:35:00,64.0,31.0,-100.00,SW,232,5.0,13.0,28,0.00,,,-99.99,,2013-06-07 22:35:00,
2013-06-07 18:44:00,64.0,31.0,-100.00,SW,232,5.0,13.0,28,0.00,,,-99.99,,2013-06-07 22:44:00,
2013-06-07 18:55:00,64.0,31.0,-100.00,SW,232,5.0,13.0,28,0.00,,,-99.99,,2013-06-07 22:55:00,
2013-06-07 19:00:00,65.0,33.0,-100.00,West,275,5.0,10.0,29,0.00,,,-99.99,,2013-06-07 23:00:00,
2013-06-07 19:35:00,65.0,33.0,-100.00,West,275,5.0,10.0,29,0.00,,,-99.99,,2013-06-07 23:35:00,
2013-06-07 19:47:00,65.0,33.0,-100.00,West,275,5.0,10.0,29,0.00,,,-99.99,,2013-06-07 23:47:00,
2013-06-07 19:55:00,65.0,33.0,-100.00,West,275,5.0,10.0,29,0.00,,,-99.99,,2013-06-07 23:55:00,
2013-06-07 20:34:00,65.0,33.0,-100.00,WNW,294,4.0,8.0,30,0.00,,,-99.99,,2013-06-08 00:34:00,
2013-06-07 20:44:00,65.0,33.0,-100.00,WNW,294,4.0,8.0,30,0.00,,,-99.99,,2013-06-08 00:44:00,
2013-06-07 20:53:00,65.0,33.0,-100.00,WNW,294,4.0,8.0,30,0.00,,,-99.99,,2013-06-08 00:53:00,
2013-06-07 21:00:00,65.0,33.0,-100.00,West,281,3.0,7.0,30,0.00,,,-99.99,,2013-06-08 01:00:00,
2013-06-07 21:37:00,65.0,33.0,-100.00,West,281,3.0,7.0,30,0.00,,,-99.99,,2013-06-08 01:37:00,
2013-06-07 21:44:00,65.0,33.0,-100.00,West,281,3.0,7.0,30,0.00,,,-99.99,,2013-06-08 01:44:00,
2013-06-07 21:55:00,65.0,33.0,-100.00,West,281,3.0,7.0,30,0.00,,,-99.99,,2013-06-08 01:55:00,
2013-06-07 22:33:00,62.0,33.0,-100.00,NW,323,3.0,6.0,33,0.00,,,-99.99,,2013-06-08 02:33:00,
2013-06-07 22:46:00,62.0,33.0,-100.00,NW,323,3.0,6.0,33,0.00,,,-99.99,,2013-06-08 02:46:00,
2013-06-07 22:54:00,62.0,33.0,-100.00,NW,323,3.0,6.0,33,0.00,,,-99.99,,2013-06-08 02:54:00,
2013-06-07 23:00:00,60.0,33.0,-100.00,WNW,288,1.0,3.0,35,0.00,,,-99.99,,2013-06-08 03:00:00,
2013-06-07 23:49:00,60.0,33.0,-100.00,WNW,288,1.0,3.0,35,0.00,,,-99.99,,2013-06-08 03:49:00,
2013-06-07 23:54:00,60.0,33.0,-100.00,WNW,288,1.0,3.0,35,0.00,,,-99.99,,2013-06-08 03:54:00,